Regional Weather Roundup
Issued by NWS

Home | Current Version | Previous Version | Text Only | Print | Product List | Glossary On
Versions: 1 2 3 4 5 6 7 8 9 10 11 12 13 14 15 16 17 18 19 20 21 22 23 24 25 26 27 28 29 30 31 32 33 34 35 36 37 38 39 40 41 42 43 44 45 46 47 48 49 50
000
ASUS46 KPQR 220710
RWROR

OREGON REGIONAL WEATHER ROUNDUP
NATIONAL WEATHER SERVICE PORTLAND OR
1200 AM PDT TUE AUG 22 2017

NOTE: "FAIR" INDICATES FEW OR NO CLOUDS BELOW 12,000 FEET WITH
NO SIGNIFICANT WEATHER AND/OR OBSTRUCTIONS TO VISIBILITY.

ORZ001>013-220800-
NORTHWEST OREGON


CITY           SKY/WX    TMP DP  RH WIND       PRES   REMARKS
ASTORIA        CLEAR     55  52  89 SW3       29.98S
NEWPORT        CLOUDY    54  54 100 CALM      30.04R FOG
PORTLAND       CLEAR     71  54  54 W3        29.94R
VANCOUVER WA   CLEAR     71  55  56 CALM      29.93R
SCAPPOOSE      CLEAR     75  52  44 NW7       29.92S
HILLSBORO      CLEAR     71  56  58 NW6       29.93S
AURORA         NOT AVBL
MCMINNVILLE    CLEAR     69  59  70 W3        29.95R
SALEM          CLEAR     68  57  68 S3        29.94R
CORVALLIS      CLEAR     66  55  68 NW3       29.98R
EUGENE         CLEAR     68  57  68 S7        29.97R
$$

ORZ021-028-220800-
SOUTHWEST OREGON


CITY           SKY/WX    TMP DP  RH WIND       PRES   REMARKS
NORTH BEND     CLOUDY    55  55 100 SW6       30.07S FOG
BROOKINGS      CLOUDY    55  54  96 CALM      30.09R FOG
ROSEBURG       CLEAR     68  56  65 CALM      29.99R HAZE
SEXTON SUMMIT  CLOUDY    63  50  62 N7        30.12S
GRANTS PASS    CLOUDY    61  52  72 CALM      30.05S
MEDFORD        CLOUDY    68  55  63 S3        30.01R HAZE
$$

ORZ014>016-041-220800-
COLUMBIA GORGE


CITY           SKY/WX    TMP DP  RH WIND       PRES   REMARKS
TROUTDALE      CLEAR     67  58  72 CALM      29.93R
HOOD RIVER     CLEAR     59  50  72 CALM      29.98S
THE DALLES     CLEAR     71  44  37 CALM      29.96R
$$

ORZ029>031-041-044-049-050-061>064-502-503-505>511-220800-
EASTERN OREGON


CITY           SKY/WX    TMP DP  RH WIND       PRES   REMARKS
MADRAS         CLEAR     61  43  51 NW6       30.07S
REDMOND        CLEAR     68  36  30 W8        30.08S
BEND           CLEAR     68  39  34 W6        30.12S
PRINEVILLE     CLEAR     63  39  42 S6        30.10S
KLAMATH FALLS  CLEAR     59  52  77 CALM      30.12R HAZE
LAKEVIEW       CLEAR    N/A N/A N/A NW9       30.15S
HERMISTON      CLEAR     66  45  46 S5        29.96S
PENDLETON      CLEAR     66  45  46 S6        30.00S
JOHN DAY       CLEAR     69  34  27 CALM      30.11S
MEACHAM        CLEAR     49  37  63 CALM      30.13F
LA GRANDE      NOT AVBL
BAKER CITY     CLEAR     52  44  74 CALM      30.12S
BURNS          CLEAR     50  32  50 W5        30.14S
ROME             N/A     61  25  25 SE3       30.12S
ONTARIO        CLEAR     60  49  66 CALM      30.04S
$$



USA.gov is the U.S. government's official web portal to all federal, state and local government web resources and services.